When you browse on this site, cookies collect data to enhance your experience and personalize the content and advertising you see.
Visit our Privacy Policy to learn more. By continuing to use the site, you agree to this use of cookies and data.
  • In Hungary
  • List of Countries
  • For 7 days
  • Water Temperature
  • Satellite Maps
  • Weather Map
  • News
  • Weather Widgets
  • user-avatar
    Login

    Hourly Weather Pingshan

    Today, 23 April, Tuesday

    Time Temperature Precipitation Wind Pressure Humidity
    00:00 +27°C° 0 mm 1 mps 755 mmHg 88%
    01:00 +27°C° 0 mm 1 mps 755 mmHg 88%
    02:00 +25°C° 0 mm 0 mps 754 mmHg 91%
    03:00 +24°C° 0 mm 0 mps 754 mmHg 91%
    04:00 +24°C° 0 mm 0 mps 754 mmHg 91%
    05:00 +24°C° 0 mm 0 mps 754 mmHg 91%
    06:00 +25°C° 0 mm 0 mps 755 mmHg 87%
    07:00 +28°C° 0 mm 1 mps 755 mmHg 83%
    08:00 +28°C° 0 mm 0 mps 756 mmHg 76%
    09:00 +31°C° 0 mm 1 mps 756 mmHg 72%
    10:00 +32°C° 0 mm 2 mps 756 mmHg 68%
    11:00 +32°C° 0 mm 2 mps 756 mmHg 64%
    12:00 +34°C° 0 mm 3 mps 755 mmHg 64%
    13:00 +34°C° 0 mm 3 mps 755 mmHg 63%
    14:00 +34°C° 0 mm 3 mps 754 mmHg 63%
    15:00 +34°C° 0 mm 3 mps 754 mmHg 64%
    16:00 +34°C° 0 mm 3 mps 754 mmHg 65%
    17:00 +33°C° 0 mm 3 mps 753 mmHg 66%
    18:00 +31°C° 0 mm 3 mps 753 mmHg 72%
    19:00 +30°C° 0 mm 2 mps 754 mmHg 79%
    20:00 +28°C° 0 mm 2 mps 754 mmHg 85%
    21:00 +28°C° 0 mm 2 mps 754 mmHg 88%
    22:00 +27°C° 0 mm 1 mps 755 mmHg 90%
    23:00 +27°C° 0 mm 1 mps 755 mmHg 92%

    Tomorrow, 24 April, Wednesday

    Time Temperature Precipitation Wind Pressure Humidity
    00:00 +27°C° 0 mm 1 mps 755 mmHg 93%
    01:00 +26°C° 0 mm 1 mps 754 mmHg 94%
    02:00 +26°C° 0 mm 1 mps 754 mmHg 96%
    03:00 +26°C° 0 mm 1 mps 754 mmHg 95%
    04:00 +26°C° 0 mm 1 mps 754 mmHg 95%
    05:00 +26°C° 0 mm 1 mps 755 mmHg 95%
    06:00 +27°C° 0 mm 1 mps 755 mmHg 90%
    07:00 +28°C° 0 mm 1 mps 755 mmHg 85%
    08:00 +29°C° 0 mm 1 mps 755 mmHg 80%
    09:00 +30°C° 0 mm 2 mps 756 mmHg 74%
    10:00 +31°C° 0 mm 2 mps 756 mmHg 67%
    11:00 +34°C° 0 mm 3 mps 756 mmHg 61%
    12:00 +34°C° 0 mm 3 mps 755 mmHg 58%
    13:00 +35°C° 0 mm 3 mps 755 mmHg 54%
    14:00 +36°C° 0 mm 4 mps 755 mmHg 51%
    15:00 +35°C° 0 mm 4 mps 754 mmHg 54%
    16:00 +35°C° 0 mm 4 mps 753 mmHg 57%
    17:00 +34°C° 0 mm 4 mps 753 mmHg 59%
    18:00 +31°C° 0 mm 3 mps 753 mmHg 67%
    19:00 +30°C° 0 mm 2 mps 753 mmHg 75%
    20:00 +28°C° 0 mm 2 mps 753 mmHg 83%
    21:00 +27°C° 0 mm 2 mps 754 mmHg 86%
    22:00 +27°C° 0 mm 1 mps 754 mmHg 89%
    23:00 +27°C° 0 mm 1 mps 754 mmHg 92%

    Day after tomorrow, 25 April, Thursday

    Time Temperature Precipitation Wind Pressure Humidity
    00:00 +26°C° 0 mm 1 mps 754 mmHg 93%
    01:00 +26°C° 0 mm 1 mps 754 mmHg 94%
    02:00 +26°C° 0 mm 1 mps 754 mmHg 95%
    03:00 +26°C° 0 mm 1 mps 754 mmHg 95%
    04:00 +26°C° 0 mm 1 mps 754 mmHg 95%
    05:00 +24°C° 0 mm 0 mps 753 mmHg 95%
    06:00 +27°C° 0 mm 1 mps 754 mmHg 90%
    07:00 +28°C° 0 mm 1 mps 754 mmHg 85%
    08:00 +28°C° 0 mm 1 mps 755 mmHg 80%
    09:00 +30°C° 0 mm 2 mps 755 mmHg 74%
    10:00 +31°C° 0 mm 2 mps 755 mmHg 67%
    11:00 +34°C° 0 mm 3 mps 755 mmHg 61%
    12:00 +35°C° 0 mm 3 mps 754 mmHg 58%
    13:00 +36°C° 0 mm 3 mps 754 mmHg 56%
    14:00 +36°C° 0 mm 4 mps 753 mmHg 53%
    15:00 +36°C° 0 mm 3 mps 753 mmHg 55%
    16:00 +36°C° 0 mm 3 mps 752 mmHg 56%
    17:00 +35°C° 0 mm 3 mps 752 mmHg 58%
    18:00 +34°C° 0 mm 3 mps 753 mmHg 64%
    19:00 +31°C° 0 mm 2 mps 753 mmHg 70%
    20:00 +30°C° 0 mm 1 mps 753 mmHg 76%
    21:00 +29°C° 0.2 mm 1 mps 754 mmHg 79%
    22:00 +29°C° 0.2 mm 1 mps 754 mmHg 81%
    23:00 +28°C° 0.2 mm 1 mps 754 mmHg 84%

    26 April, Friday

    Time Temperature Precipitation Wind Pressure Humidity
    00:00 +28°C° 0 mm 1 mps 754 mmHg 85%
    01:00 +26°C° 0 mm 0 mps 754 mmHg 87%
    02:00 +26°C° 0 mm 0 mps 753 mmHg 88%
    03:00 +26°C° 0.1 mm 0 mps 753 mmHg 89%
    04:00 +25°C° 0.1 mm 0 mps 753 mmHg 90%
    05:00 +25°C° 0.1 mm 0 mps 753 mmHg 91%
    06:00 +26°C° 0 mm 0 mps 754 mmHg 87%
    07:00 +29°C° 0 mm 1 mps 754 mmHg 83%
    08:00 +30°C° 0 mm 1 mps 755 mmHg 80%
    09:00 +31°C° 0.2 mm 1 mps 755 mmHg 72%
    10:00 +34°C° 0.2 mm 2 mps 755 mmHg 65%
    11:00 +35°C° 0.2 mm 2 mps 755 mmHg 58%
    12:00 +35°C° 0.3 mm 3 mps 755 mmHg 56%
    13:00 +36°C° 0.3 mm 3 mps 754 mmHg 54%
    14:00 +36°C° 0.3 mm 3 mps 754 mmHg 53%
    15:00 +35°C° 0.9 mm 3 mps 754 mmHg 58%
    16:00 +34°C° 0.9 mm 2 mps 754 mmHg 64%
    17:00 +31°C° 0.9 mm 2 mps 754 mmHg 70%
    18:00 +30°C° 1.3 mm 2 mps 755 mmHg 75%
    19:00 +29°C° 1.3 mm 1 mps 755 mmHg 80%
    20:00 +28°C° 1.3 mm 1 mps 756 mmHg 85%
    21:00 +28°C° 0.1 mm 1 mps 756 mmHg 86%
    22:00 +28°C° 0.1 mm 1 mps 756 mmHg 87%
    23:00 +27°C° 0.1 mm 1 mps 756 mmHg 88%

    27 April, Saturday

    Time Temperature Precipitation Wind Pressure Humidity
    00:00 +27°C° 0 mm 1 mps 756 mmHg 89%
    01:00 +27°C° 0 mm 1 mps 755 mmHg 91%
    02:00 +26°C° 0 mm 1 mps 755 mmHg 93%
    03:00 +26°C° 0.1 mm 1 mps 755 mmHg 93%
    04:00 +26°C° 0.1 mm 1 mps 755 mmHg 93%
    05:00 +26°C° 0.1 mm 2 mps 755 mmHg 93%
    06:00 +27°C° 0 mm 2 mps 756 mmHg 89%
    07:00 +28°C° 0 mm 2 mps 756 mmHg 85%
    08:00 +28°C° 0 mm 2 mps 757 mmHg 80%
    09:00 +29°C° 0.1 mm 3 mps 757 mmHg 76%
    10:00 +30°C° 0.1 mm 3 mps 757 mmHg 72%
    11:00 +32°C° 0.1 mm 4 mps 758 mmHg 67%
    12:00 +33°C° 0.1 mm 4 mps 757 mmHg 66%
    13:00 +33°C° 0.1 mm 5 mps 756 mmHg 65%
    14:00 +33°C° 0.1 mm 5 mps 755 mmHg 64%
    15:00 +32°C° 0 mm 5 mps 755 mmHg 67%
    16:00 +30°C° 0 mm 5 mps 755 mmHg 70%
    17:00 +30°C° 0 mm 4 mps 755 mmHg 73%
    18:00 +29°C° 0 mm 4 mps 756 mmHg 77%
    19:00 +28°C° 0 mm 3 mps 756 mmHg 80%
    20:00 +27°C° 0 mm 2 mps 757 mmHg 83%
    21:00 +27°C° 0 mm 3 mps 757 mmHg 84%
    22:00 +26°C° 0 mm 3 mps 757 mmHg 85%
    23:00 +26°C° 0 mm 3 mps 758 mmHg 86%

    28 April, Sunday

    Time Temperature Precipitation Wind Pressure Humidity
    00:00 +26°C° 0 mm 3 mps 757 mmHg 86%
    01:00 +25°C° 0 mm 2 mps 757 mmHg 87%
    02:00 +25°C° 0 mm 2 mps 756 mmHg 87%
    03:00 +25°C° 0 mm 2 mps 756 mmHg 88%
    04:00 +25°C° 0 mm 2 mps 756 mmHg 89%
    05:00 +24°C° 0 mm 1 mps 757 mmHg 90%
    06:00 +25°C° 0 mm 1 mps 757 mmHg 86%
    07:00 +26°C° 0 mm 2 mps 757 mmHg 83%
    08:00 +27°C° 0 mm 2 mps 758 mmHg 79%
    09:00 +28°C° 0 mm 2 mps 758 mmHg 74%
    10:00 +29°C° 0 mm 2 mps 758 mmHg 70%
    11:00 +31°C° 0 mm 3 mps 758 mmHg 65%
    12:00 +31°C° 0 mm 3 mps 757 mmHg 65%
    13:00 +31°C° 0 mm 3 mps 757 mmHg 64%
    14:00 +33°C° 0 mm 3 mps 756 mmHg 63%
    15:00 +31°C° 0.1 mm 3 mps 756 mmHg 65%
    16:00 +32°C° 0.1 mm 4 mps 755 mmHg 68%
    17:00 +32°C° 0.1 mm 4 mps 755 mmHg 70%
    18:00 +29°C° 0 mm 3 mps 755 mmHg 76%
    19:00 +28°C° 0 mm 3 mps 756 mmHg 81%
    20:00 +27°C° 0 mm 2 mps 756 mmHg 87%
    21:00 +27°C° 0 mm 2 mps 756 mmHg 89%
    22:00 +26°C° 0 mm 2 mps 756 mmHg 91%
    23:00 +26°C° 0 mm 1 mps 757 mmHg 93%
    Show more